Location: Ellen Observatory
(29.0040°N, 81.3000°W)
Time: 22:13:31
(UTC-04:00)

ISS - Visible Passes

Search period start: 18 October 2018 00:00
Search period end: 28 October 2018 00:00
Orbit: 403 x 408 km, 51.6° (Epoch: 19 October)

Date Brightness Start Highest point End Pass type
(mag) Time Alt. Az. Time Alt. Az. Time Alt. Az.
23 Oct -0.7 06:37:15 10° SSE 06:39:09 15° SE 06:41:03 10° E visible
25 Oct -2.8 06:28:17 10° SSW 06:31:25 46° SE 06:34:34 10° NE visible
26 Oct -1.4 05:39:08 19° SE 05:39:31 20° SE 05:41:59 10° ENE visible
27 Oct -3.6 06:23:10 42° W 06:23:47 49° NW 06:26:58 10° NNE visible
